Nantucket, Massachusetts, United States (02554)
Lat: 41.28N, Lon: 70.1W
Wx Zone: MAZ024
Local Info
Past Weather Observations for Today

NOTE: This archive is for the closest National Weather Service station to Nantucket. Information may differ from the station used for current weather conditions.

Click here for Long-term Archive

Time Weather Temperature Dewpoint Humidity Pressure Winds Precip Visibility
09:01
Obscured
Fog
73°F / 23°C 72°F / 22°C 94% 29.98 in
(1015 mb)
SW 8.1 mph
(SW 13 kph)
- M1/4SM
08:53
Obscured
Fog
72°F / 22°C 72°F / 22°C 100% 29.98 in
(1015 mb)
SW 9.2 mph
(SW 15 kph)
- 1/4SM
08:44
Obscured
Fog
72°F / 22°C 72°F / 22°C 100% 29.98 in
(1015 mb)
SW 9.2 mph
(SW 15 kph)
- 1/4SM
08:28
Obscured
Fog
72°F / 22°C 72°F / 22°C 100% 29.95 in
(1014 mb)
SW 8.1 mph
(SW 13 kph)
- 1/4SM
07:53
Obscured
Fog
72°F / 22°C 70°F / 21°C 94% 29.98 in
(1015 mb)
SW 8.1 mph
(SW 13 kph)
- M1/4SM
06:53
Obscured
Fog
70°F / 21°C 70°F / 21°C 100% 29.95 in
(1014 mb)
SW 8.1 mph
(SW 13 kph)
- M1/4SM
06:32
Obscured
Fog
70°F / 21°C 70°F / 21°C 100% 29.95 in
(1014 mb)
SW 5.8 mph
(SW 9 kph)
- 1/4SM
06:24
Obscured
Fog
70°F / 21°C 70°F / 21°C 100% 29.95 in
(1014 mb)
SW 5.8 mph
(SW 9 kph)
- 1/4SM
06:14
Obscured
Fog
70°F / 21°C 70°F / 21°C 100% 29.95 in
(1014 mb)
SW 5.8 mph
(SW 9 kph)
- M1/4SM
05:53
Obscured
Fog
70°F / 21°C 70°F / 21°C 100% 29.95 in
(1014 mb)
SW 6.9 mph
(SW 11 kph)
- 1/4SM
05:33
Obscured
Fog
70°F / 21°C 70°F / 21°C 100% 29.95 in
(1014 mb)
SW 6.9 mph
(SW 11 kph)
- M1/4SM
04:53
Obscured
Fog
70°F / 21°C 70°F / 21°C 100% 29.92 in
(1013 mb)
SW 5.8 mph
(SW 9 kph)
0.01 in
(0.25 mm)
1/4SM
04:41
Obscured
Fog
70°F / 21°C 68°F / 20°C 94% 29.95 in
(1014 mb)
SW 5.8 mph
(SW 9 kph)
0.01 in
(0.25 mm)
1/4SM
04:20
Obscured
Fog
70°F / 21°C 68°F / 20°C 94% 29.95 in
(1014 mb)
SW 4.6 mph
(SW 7 kph)
0.01 in
(0.25 mm)
1/4SM
03:53
Obscured
Fog
70°F / 21°C 68°F / 20°C 94% 29.95 in
(1014 mb)
SW 4.6 mph
(SW 7 kph)
- 1/2SM
03:47
Obscured
Fog
70°F / 21°C 68°F / 20°C 94% 29.95 in
(1014 mb)
SW 5.8 mph
(SW 9 kph)
- 1/2SM
03:24
Obscured
Fog
70°F / 21°C 68°F / 20°C 94% 29.95 in
(1014 mb)
SW 4.6 mph
(SW 7 kph)
- 1/4SM
03:14
Obscured
Fog
70°F / 21°C 68°F / 20°C 94% 29.95 in
(1014 mb)
SW 5.8 mph
(SW 9 kph)
- 1/2SM
03:05
Obscured
Fog
70°F / 21°C 68°F / 20°C 94% 29.95 in
(1014 mb)
SW 4.6 mph
(SW 7 kph)
- 1/4SM
02:53
Obscured
Fog
70°F / 21°C 68°F / 20°C 94% 29.95 in
(1014 mb)
SSW 3.5 mph
(SSW 6 kph)
- 1/4SM
02:50
Obscured
Fog
70°F / 21°C 68°F / 20°C 94% 29.95 in
(1014 mb)
SSW 4.6 mph
(SSW 7 kph)
- 1/4SM
02:11
Obscured
Fog
68°F / 20°C 68°F / 20°C 100% 29.95 in
(1014 mb)
SW 6.9 mph
(SW 11 kph)
- 1/4SM
02:03
Obscured
Fog
68°F / 20°C 68°F / 20°C 100% 29.95 in
(1014 mb)
SW 6.9 mph
(SW 11 kph)
- 1/4SM
01:53
Obscured
Fog
68°F / 20°C 68°F / 20°C 100% 29.95 in
(1014 mb)
SW 9.2 mph
(SW 15 kph)
- 1/2SM
01:28
Obscured
Fog
70°F / 21°C 68°F / 20°C 94% 29.95 in
(1014 mb)
SSW 11.5 mph
(SSW 19 kph)
- 1/2SM
01:01
Obscured
Fog And Mist
70°F / 21°C 70°F / 21°C 100% 29.95 in
(1014 mb)
SSW 10.4 mph
(SSW 17 kph)
- 3/4SM
00:53
Obscured
Fog And Mist
70°F / 21°C 70°F / 21°C 100% 29.95 in
(1014 mb)
SSW 11.5 mph
(SSW 19 kph)
- 1SM
00:28
Obscured
Fog And Mist
70°F / 21°C 70°F / 21°C 100% 29.98 in
(1015 mb)
SSW 11.5 mph
(SSW 19 kph)
- 3/4SM
00:10
Obscured
Fog
70°F / 21°C 70°F / 21°C 100% 29.98 in
(1015 mb)
SSW 11.5 mph
(SSW 19 kph)
- 1/2SM
Time Weather Temperature Dewpoint Humidity Pressure Winds Precip Visibility


Weather for websites

WeatherForYou.com, LLC is not responsible for any damages or problems caused by this service. Current weather conditions are obtained from the closest station including government and personal stations which may have varying degrees of accuracy. Weather forecasts are derived from the NOAA NDFD. Like all things, this site belongs to Jesus Christ... He just trusts me to maintain it. If you have any questions or comments email webmaster@weatherforyou.com

Copyright © 2014, WeatherForYou.com LLC. All rights reserved.